,,,PA_Meas_PMT16A,,PR_Meas_QMR101_102,,RH_Meas_QMH101,,SR_Meas_QMS101,,TA_Meas_QMH101,,GenWind,,GenWind,
date,time,status,PA,status,PR,status,RH,status,SR,status,TA,status,DirAvg,status,SpdAvg,
2009-08-29, 00:00:04,VALID,1000.65,VALID,0,VALID,88.908,VALID,0.112286,VALID,23.4671,VALID,109,VALID,0.448438,
2009-08-29, 00:01:04,VALID,1000.66,VALID,0,VALID,89.2055,VALID,0,VALID,23.4085,VALID,90,VALID,0.591406,
2009-08-29, 00:02:04,VALID,1000.66,VALID,0,VALID,89.5565,VALID,0,VALID,23.3482,VALID,70,VALID,0.639453,
2009-08-29, 00:03:04,VALID,1000.63,VALID,0,VALID,89.732,VALID,0.112286,VALID,23.35,VALID,66,VALID,0.558594,
2009-08-29, 00:04:04,VALID,1000.66,VALID,0,VALID,89.7091,VALID,0.112286,VALID,23.2897,VALID,66,VALID,0.560547,
2009-08-29, 00:05:04,VALID,1000.64,VALID,0,VALID,90.0295,VALID,0,VALID,23.2897,VALID,66,VALID,0.523828,
2009-08-29, 00:06:04,VALID,1000.63,VALID,0,VALID,90.06,VALID,0,VALID,23.2897,VALID,66,VALID,0.514453,
2009-08-29, 00:07:04,VALID,1000.62,VALID,0,VALID,89.8769,VALID,0,VALID,23.311,VALID,66,VALID,0.510938,
2009-08-29, 00:08:04,VALID,1000.61,VALID,0,VALID,89.7396,VALID,0,VALID,23.2915,VALID,66,VALID,0.248828,
2009-08-29, 00:09:04,VALID,1000.64,VALID,0,VALID,89.8083,VALID,0.112286,VALID,23.2507,VALID,66,VALID,0.283203,
2009-08-29, 00:10:04,VALID,1000.63,VALID,0,VALID,89.9227,VALID,0,VALID,23.2524,VALID,66,VALID,0.281641,
2009-08-29, 00:11:04,VALID,1000.62,VALID,0,VALID,90.0143,VALID,0,VALID,23.2117,VALID,66,VALID,0.371484,
2009-08-29, 00:12:04,VALID,1000.63,VALID,0,VALID,90.0753,VALID,0,VALID,23.2347,VALID,66,VALID,0.531641,
2009-08-29, 00:13:04,VALID,1000.64,VALID,0,VALID,90.0753,VALID,0,VALID,23.2152,VALID,66,VALID,0.573828,
2009-08-29, 00:14:04,VALID,1000.64,VALID,0,VALID,89.999,VALID,0,VALID,23.2152,VALID,66,VALID,0.58125,
2009-08-29, 00:15:04,VALID,1000.64,VALID,0,VALID,90.0448,VALID,0,VALID,23.1957,VALID,66,VALID,0.632031,
2009-08-29, 00:16:04,VALID,1000.62,VALID,0,VALID,90.4949,VALID,0,VALID,23.2152,VALID,66,VALID,0.686719,
2009-08-29, 00:17:04,VALID,1000.61,VALID,0,VALID,90.4568,VALID,0,VALID,23.2347,VALID,66,VALID,0.841016,
2009-08-29, 00:18:04,VALID,1000.62,VALID,0,VALID,90.2889,VALID,0,VALID,23.1939,VALID,66,VALID,0.635547,
2009-08-29, 00:19:04,VALID,1000.6,VALID,0,VALID,90.3042,VALID,0,VALID,23.1957,VALID,66,VALID,0.534766,
2009-08-29, 00:20:04,VALID,1000.57,VALID,0,VALID,90.3881,VALID,0,VALID,23.1566,VALID,66,VALID,0.597656,
2009-08-29, 00:21:04,VALID,1000.58,VALID,0,VALID,90.556,VALID,0,VALID,23.1566,VALID,66,VALID,0.722266,
2009-08-29, 00:22:04,VALID,1000.55,VALID,0,VALID,90.7314,VALID,0,VALID,23.1159,VALID,66,VALID,0.732031,
2009-08-29, 00:23:04,VALID,1000.54,VALID,0,VALID,90.7085,VALID,0,VALID,23.1159,VALID,66,VALID,0.685547,
2009-08-29, 00:24:04,VALID,1000.53,VALID,0,VALID,90.7085,VALID,0,VALID,23.1371,VALID,66,VALID,0.649609,
2009-08-29, 00:25:04,VALID,1000.52,VALID,0,VALID,90.6475,VALID,0,VALID,23.1371,VALID,66,VALID,0.669531,
2009-08-29, 00:26:04,VALID,1000.52,VALID,0,VALID,90.6399,VALID,0,VALID,23.1176,VALID,64,VALID,0.850781,
2009-08-29, 00:27:04,VALID,1000.48,VALID,0,VALID,90.4949,VALID,0,VALID,23.0981,VALID,60,VALID,0.898047,
2009-08-29, 00:28:04,VALID,1000.47,VALID,0,VALID,90.3957,VALID,0,VALID,23.0786,VALID,50,VALID,1.01992,
2009-08-29, 00:29:04,VALID,1000.48,VALID,0,VALID,90.4186,VALID,0,VALID,23.0378,VALID,49,VALID,1.09102,
2009-08-29, 00:30:04,VALID,1000.46,VALID,0,VALID,90.4644,VALID,0,VALID,23.0183,VALID,49,VALID,0.916406,
2009-08-29, 00:31:04,VALID,1000.48,VALID,0,VALID,90.5636,VALID,0,VALID,23.0396,VALID,49,VALID,0.916406,
2009-08-29, 00:32:04,VALID,1000.45,VALID,0,VALID,90.5331,VALID,0,VALID,23.0201,VALID,50,VALID,0.854297,
2009-08-29, 00:33:04,VALID,1000.44,VALID,0,VALID,90.5026,VALID,0,VALID,22.9793,VALID,50,VALID,0.940625,
2009-08-29, 00:34:04,VALID,1000.48,VALID,0,VALID,90.6628,VALID,0,VALID,22.9811,VALID,49,VALID,0.967188,
2009-08-29, 00:35:04,VALID,1000.48,VALID,0,VALID,90.7849,VALID,0,VALID,22.9793,VALID,49,VALID,1.01953,
2009-08-29, 00:36:04,VALID,1000.47,VALID,0,VALID,90.7925,VALID,0,VALID,22.9615,VALID,49,VALID,0.720312,
2009-08-29, 00:37:04,VALID,1000.48,VALID,0,VALID,90.8306,VALID,0,VALID,22.9811,VALID,49,VALID,0.672266,
2009-08-29, 00:38:04,VALID,1000.48,VALID,0,VALID,90.7238,VALID,0,VALID,22.942,VALID,57,VALID,0.899219,
2009-08-29, 00:39:04,VALID,1000.49,VALID,0,VALID,90.7391,VALID,0,VALID,22.942,VALID,60,VALID,0.875391,
2009-08-29, 00:40:04,VALID,1000.5,VALID,0,VALID,90.7009,VALID,0,VALID,22.9013,VALID,70,VALID,0.808984,
2009-08-29, 00:41:04,VALID,1000.47,VALID,0,VALID,90.7009,VALID,0,VALID,22.9225,VALID,70,VALID,0.771875,
2009-08-29, 00:42:04,VALID,1000.48,VALID,0,VALID,90.7925,VALID,0,VALID,22.9013,VALID,69,VALID,0.678516,
2009-08-29, 00:43:04,VALID,1000.48,VALID,0,VALID,90.7238,VALID,0,VALID,22.9208,VALID,62,VALID,0.554297,
2009-08-29, 00:44:04,VALID,1000.46,VALID,0,VALID,90.6399,VALID,0,VALID,22.9013,VALID,58,VALID,0.339453,
2009-08-29, 00:45:04,VALID,1000.48,VALID,0,VALID,90.7314,VALID,0,VALID,22.8818,VALID,58,VALID,0.259375,
2009-08-29, 00:46:04,VALID,1000.48,VALID,0,VALID,90.7849,VALID,0,VALID,22.8818,VALID,58,VALID,0.325781,
2009-08-29, 00:47:04,VALID,1000.47,VALID,0,VALID,90.8001,VALID,0,VALID,22.8818,VALID,58,VALID,0.453125,
2009-08-29, 00:48:04,VALID,1000.43,VALID,0,VALID,90.7391,VALID,0,VALID,22.8623,VALID,58,VALID,0.382422,
2009-08-29, 00:49:04,VALID,1000.42,VALID,0,VALID,90.7772,VALID,0,VALID,22.8427,VALID,58,VALID,0.398828,
2009-08-29, 00:50:04,VALID,1000.4,VALID,0,VALID,90.8688,VALID,0,VALID,22.8427,VALID,58,VALID,0.234375,
2009-08-29, 00:51:04,VALID,1000.37,VALID,0,VALID,90.884,VALID,0,VALID,22.841,VALID,58,VALID,0.0964844,
2009-08-29, 00:52:04,VALID,1000.36,VALID,0,VALID,90.8764,VALID,0,VALID,22.8427,VALID,58,VALID,0,
2009-08-29, 00:53:04,VALID,1000.34,VALID,0,VALID,90.8917,VALID,0,VALID,22.8427,VALID,58,VALID,0,
2009-08-29, 00:54:04,VALID,1000.33,VALID,0,VALID,90.8993,VALID,0,VALID,22.8427,VALID,58,VALID,0,
2009-08-29, 00:55:04,VALID,1000.32,VALID,0,VALID,90.8611,VALID,0,VALID,22.8427,VALID,58,VALID,0,
2009-08-29, 00:56:04,VALID,1000.31,VALID,0,VALID,90.884,VALID,0,VALID,22.8215,VALID,58,VALID,0.133203,
2009-08-29, 00:57:04,VALID,1000.27,VALID,0,VALID,90.8917,VALID,0,VALID,22.8215,VALID,58,VALID,0.123047,
2009-08-29, 00:58:04,VALID,1000.29,VALID,0,VALID,90.9069,VALID,0,VALID,22.8232,VALID,58,VALID,0.192578,
2009-08-29, 00:59:04,VALID,1000.28,VALID,0,VALID,90.8917,VALID,0,VALID,22.8232,VALID,58,VALID,0.208984,
2009-08-29, 01:00:04,VALID,1000.29,VALID,0,VALID,90.884,VALID,0,VALID,22.8232,VALID,58,VALID,0.171484,
2009-08-29, 01:01:04,VALID,1000.28,VALID,0,VALID,90.884,VALID,0.112286,VALID,22.8232,VALID,58,VALID,0.0457031,
2009-08-29, 01:02:04,VALID,1000.31,VALID,0,VALID,90.823,VALID,0.112286,VALID,22.8037,VALID,58,VALID,0.104687,
2009-08-29, 01:03:04,VALID,1000.31,VALID,0,VALID,90.8154,VALID,0,VALID,22.8232,VALID,58,VALID,0.208203,
2009-08-29, 01:04:04,VALID,1000.34,VALID,0,VALID,90.7162,VALID,0,VALID,22.8232,VALID,58,VALID,0,
2009-08-29, 01:05:04,VALID,1000.3,VALID,0,VALID,90.7162,VALID,0,VALID,22.8232,VALID,58,VALID,0,
2009-08-29, 01:06:04,VALID,1000.3,VALID,0,VALID,90.8383,VALID,0,VALID,22.8232,VALID,59,VALID,0.215234,
2009-08-29, 01:07:04,VALID,1000.28,VALID,0,VALID,90.823,VALID,0,VALID,22.8232,VALID,59,VALID,0.0261719,
2009-08-29, 01:08:04,VALID,1000.27,VALID,0,VALID,90.8306,VALID,0,VALID,22.8232,VALID,59,VALID,0,
2009-08-29, 01:09:04,VALID,1000.26,VALID,0,VALID,90.823,VALID,0,VALID,22.8232,VALID,59,VALID,0,
2009-08-29, 01:10:04,VALID,1000.27,VALID,0,VALID,90.9069,VALID,0,VALID,22.8232,VALID,59,VALID,0.0730469,
2009-08-29, 01:11:04,VALID,1000.24,VALID,0,VALID,90.9069,VALID,0,VALID,22.8232,VALID,59,VALID,0.0269531,
2009-08-29, 01:12:04,VALID,1000.26,VALID,0,VALID,90.9069,VALID,0,VALID,22.8037,VALID,59,VALID,0.253125,
2009-08-29, 01:13:04,VALID,1000.27,VALID,0,VALID,91.0748,VALID,0,VALID,22.8232,VALID,59,VALID,0.335547,
2009-08-29, 01:14:04,VALID,1000.27,VALID,0,VALID,91.0977,VALID,0,VALID,22.8445,VALID,66,VALID,0.531641,
2009-08-29, 01:15:04,VALID,1000.26,VALID,0,VALID,91.1282,VALID,0,VALID,22.8623,VALID,86,VALID,0.722656,
2009-08-29, 01:16:04,VALID,1000.25,VALID,0,VALID,91.2121,VALID,0,VALID,22.9225,VALID,86,VALID,0.710938,
2009-08-29, 01:17:04,VALID,1000.27,VALID,0,VALID,91.38,VALID,0,VALID,22.9811,VALID,86,VALID,0.513281,
2009-08-29, 01:18:04,VALID,1000.29,VALID,0,VALID,91.2426,VALID,0,VALID,22.9988,VALID,86,VALID,0.4125,
2009-08-29, 01:19:04,VALID,1000.25,VALID,0,VALID,91.0443,VALID,0,VALID,23.0396,VALID,86,VALID,0.439844,
2009-08-29, 01:20:04,VALID,1000.24,VALID,0,VALID,91.0366,VALID,0,VALID,23.0183,VALID,86,VALID,0.525,
2009-08-29, 01:21:04,VALID,1000.25,VALID,0,VALID,90.8993,VALID,0,VALID,23.0378,VALID,86,VALID,0.5125,
2009-08-29, 01:22:04,VALID,1000.23,VALID,0,VALID,90.9298,VALID,0,VALID,23.0786,VALID,86,VALID,0.514844,
2009-08-29, 01:23:04,VALID,1000.24,VALID,0,VALID,90.8459,VALID,0,VALID,23.0769,VALID,86,VALID,0.323047,
2009-08-29, 01:24:04,VALID,1000.25,VALID,0,VALID,90.7314,VALID,0,VALID,23.0786,VALID,86,VALID,0.227734,
2009-08-29, 01:25:04,VALID,1000.23,VALID,0,VALID,90.7162,VALID,0,VALID,23.0591,VALID,86,VALID,0.211719,
2009-08-29, 01:26:04,VALID,1000.27,VALID,0,VALID,90.7467,VALID,0,VALID,22.9988,VALID,86,VALID,0.166406,
2009-08-29, 01:27:04,VALID,1000.23,VALID,0,VALID,90.7314,VALID,0.112286,VALID,22.9988,VALID,86,VALID,0.422656,
2009-08-29, 01:28:04,VALID,1000.26,VALID,0,VALID,90.5636,VALID,0.112286,VALID,22.9793,VALID,85,VALID,0.627344,
2009-08-29, 01:29:04,VALID,1000.2,VALID,0,VALID,90.3728,VALID,0.112286,VALID,22.9385,VALID,85,VALID,0.659375,
2009-08-29, 01:30:04,VALID,1000.23,VALID,0,VALID,90.35,VALID,0,VALID,22.9598,VALID,85,VALID,0.613281,
2009-08-29, 01:31:04,VALID,1000.21,VALID,0,VALID,90.144,VALID,0.112286,VALID,22.9385,VALID,79,VALID,0.689062,
2009-08-29, 01:32:04,VALID,1000.23,VALID,0,VALID,90.0982,VALID,0.112286,VALID,22.919,VALID,78,VALID,0.422656,
2009-08-29, 01:33:04,VALID,1000.22,VALID,0,VALID,90.1592,VALID,0,VALID,22.9403,VALID,78,VALID,0.253125,
2009-08-29, 01:34:04,VALID,1000.24,VALID,0,VALID,90.1668,VALID,0.112286,VALID,22.8995,VALID,78,VALID,0.285937,
2009-08-29, 01:35:04,VALID,1000.2,VALID,0,VALID,90.3652,VALID,0,VALID,22.8605,VALID,78,VALID,0.259766,
2009-08-29, 01:36:04,VALID,1000.23,VALID,0,VALID,90.4949,VALID,0,VALID,22.8623,VALID,78,VALID,0.351172,
2009-08-29, 01:37:04,VALID,1000.21,VALID,0,VALID,90.7925,VALID,0.112286,VALID,22.8623,VALID,78,VALID,0.453516,
2009-08-29, 01:38:04,VALID,1000.19,VALID,0,VALID,91.0061,VALID,0.112286,VALID,22.8605,VALID,78,VALID,0.432031,
2009-08-29, 01:39:04,VALID,1000.17,VALID,0,VALID,90.9451,VALID,0,VALID,22.8818,VALID,78,VALID,0.428906,
2009-08-29, 01:40:04,VALID,1000.18,VALID,0,VALID,90.9909,VALID,0.112286,VALID,22.9013,VALID,78,VALID,0.427344,
2009-08-29, 01:41:04,VALID,1000.17,VALID,0,VALID,91.1053,VALID,0.112286,VALID,22.88,VALID,79,VALID,0.510156,
2009-08-29, 01:42:04,VALID,1000.14,VALID,0,VALID,91.1587,VALID,0,VALID,22.9013,VALID,80,VALID,0.420703,
2009-08-29, 01:43:04,VALID,1000.15,VALID,0,VALID,91.1511,VALID,0,VALID,22.9225,VALID,80,VALID,0.316016,
2009-08-29, 01:44:04,VALID,1000.11,VALID,0,VALID,91.1434,VALID,0,VALID,22.942,VALID,80,VALID,0.34375,
2009-08-29, 01:45:04,VALID,1000.1,VALID,0,VALID,91.029,VALID,0,VALID,22.9225,VALID,80,VALID,0.3,
2009-08-29, 01:46:04,VALID,1000.09,VALID,0,VALID,91.1587,VALID,0,VALID,22.9225,VALID,80,VALID,0.428516,
2009-08-29, 01:47:04,VALID,1000.08,VALID,0,VALID,91.2045,VALID,0,VALID,22.942,VALID,80,VALID,0.348828,
2009-08-29, 01:48:04,VALID,1000.05,VALID,0,VALID,91.2121,VALID,0,VALID,22.9403,VALID,80,VALID,0.217578,
2009-08-29, 01:49:04,VALID,1000.05,VALID,0,VALID,91.2197,VALID,0,VALID,22.9403,VALID,147,VALID,0.321094,
2009-08-29, 01:50:04,VALID,1000.05,VALID,0,VALID,91.2579,VALID,0,VALID,22.9598,VALID,141,VALID,0.550391,
2009-08-29, 01:51:04,VALID,1000.05,VALID,0,VALID,91.1511,VALID,0,VALID,22.9811,VALID,126,VALID,0.617188,
2009-08-29, 01:52:04,VALID,1000.04,VALID,0,VALID,91.1968,VALID,0,VALID,23.0006,VALID,117,VALID,0.891406,
2009-08-29, 01:53:04,VALID,1000.04,VALID,0,VALID,91.38,VALID,0,VALID,23.0183,VALID,114,VALID,1.1082,
2009-08-29, 01:54:04,VALID,1000.05,VALID,0,VALID,91.3876,VALID,0,VALID,23.0786,VALID,113,VALID,0.968359,
2009-08-29, 01:55:04,VALID,1000.06,VALID,0,VALID,91.2731,VALID,0,VALID,23.0964,VALID,122,VALID,0.708594,
2009-08-29, 01:56:04,VALID,1000.06,VALID,0,VALID,91.0595,VALID,0,VALID,23.0964,VALID,123,VALID,0.372266,
2009-08-29, 01:57:04,VALID,1000.06,VALID,0,VALID,90.9374,VALID,0,VALID,23.0751,VALID,116,VALID,0.433203,
2009-08-29, 01:58:04,VALID,1000.05,VALID,0,VALID,90.823,VALID,0,VALID,23.0981,VALID,109,VALID,0.493359,
2009-08-29, 01:59:04,VALID,1000.08,VALID,0,VALID,91.0595,VALID,0,VALID,23.0769,VALID,81,VALID,0.524219,
2009-08-29, 02:00:04,VALID,1000.08,VALID,0,VALID,91.2731,VALID,0,VALID,23.0964,VALID,80,VALID,0.789453,
2009-08-29, 02:01:04,VALID,1000.06,VALID,0,VALID,91.1816,VALID,0,VALID,23.1371,VALID,80,VALID,0.755859,
2009-08-29, 02:02:04,VALID,1000.08,VALID,0,VALID,91.029,VALID,0,VALID,23.0964,VALID,80,VALID,0.690625,
2009-08-29, 02:03:04,VALID,1000.06,VALID,0,VALID,90.9222,VALID,0,VALID,23.0981,VALID,74,VALID,0.795703,
2009-08-29, 02:04:04,VALID,1000.07,VALID,0,VALID,90.8001,VALID,0,VALID,23.0573,VALID,62,VALID,0.696875,
2009-08-29, 02:05:04,VALID,1000.08,VALID,0,VALID,90.8077,VALID,0,VALID,23.0378,VALID,61,VALID,0.511328,
2009-08-29, 02:06:04,VALID,1000.04,VALID,0,VALID,90.762,VALID,0,VALID,23.0183,VALID,61,VALID,0.389844,
2009-08-29, 02:07:04,VALID,1000.06,VALID,0,VALID,90.8917,VALID,0,VALID,23.0006,VALID,60,VALID,0.353125,
2009-08-29, 02:08:04,VALID,1000.03,VALID,0,VALID,90.8154,VALID,0,VALID,22.9793,VALID,58,VALID,0.0328125,
2009-08-29, 02:09:04,VALID,1000.04,VALID,0,VALID,90.7925,VALID,0,VALID,22.9403,VALID,58,VALID,0,
2009-08-29, 02:10:04,VALID,1000.03,VALID,0,VALID,90.9374,VALID,0,VALID,22.9403,VALID,58,VALID,0,
2009-08-29, 02:11:04,VALID,1000.04,VALID,0,VALID,91.0214,VALID,0,VALID,22.9403,VALID,58,VALID,0.00898437,
2009-08-29, 02:12:04,VALID,1000.04,VALID,0,VALID,91.1053,VALID,0,VALID,22.9615,VALID,59,VALID,0,
2009-08-29, 02:13:04,VALID,1000.04,VALID,0,VALID,91.1129,VALID,0,VALID,22.9403,VALID,59,VALID,0.00195313,
2009-08-29, 02:14:04,VALID,1000.05,VALID,0,VALID,91.1511,VALID,0,VALID,22.9615,VALID,59,VALID,0,
2009-08-29, 02:15:04,VALID,1000.07,VALID,0,VALID,91.0977,VALID,0,VALID,22.9208,VALID,59,VALID,0.00117188,
2009-08-29, 02:16:04,VALID,1000.08,VALID,0,VALID,91.296,VALID,0,VALID,22.9615,VALID,59,VALID,0.00078125,
2009-08-29, 02:17:04,VALID,1000.11,VALID,0,VALID,91.5554,VALID,0,VALID,22.9598,VALID,60,VALID,0.446875,
2009-08-29, 02:18:04,VALID,1000.11,VALID,0,VALID,91.5631,VALID,0,VALID,22.9988,VALID,86,VALID,0.304297,
2009-08-29, 02:19:04,VALID,1000.09,VALID,0,VALID,91.4791,VALID,0,VALID,23.0591,VALID,86,VALID,0.410156,
2009-08-29, 02:20:04,VALID,1000.11,VALID,0,VALID,91.38,VALID,0,VALID,23.0573,VALID,103,VALID,0.523438,
2009-08-29, 02:21:04,VALID,1000.12,VALID,0,VALID,91.4028,VALID,0,VALID,23.1159,VALID,106,VALID,0.774609,
2009-08-29, 02:22:04,VALID,1000.1,VALID,0,VALID,91.0443,VALID,0,VALID,23.1549,VALID,105,VALID,0.320313,
2009-08-29, 02:23:04,VALID,1000.08,VALID,0,VALID,90.6933,VALID,0,VALID,23.1762,VALID,105,VALID,0.196094,
2009-08-29, 02:24:04,VALID,1000.1,VALID,0,VALID,90.4034,VALID,0,VALID,23.1354,VALID,53,VALID,0.706641,
2009-08-29, 02:25:04,VALID,1000.08,VALID,0,VALID,90.35,VALID,0,VALID,23.0981,VALID,46,VALID,0.482812,
2009-08-29, 02:26:04,VALID,1000.06,VALID,0,VALID,90.2737,VALID,0,VALID,23.0378,VALID,43,VALID,0.371484,
2009-08-29, 02:27:04,VALID,1000.05,VALID,0,VALID,90.3576,VALID,0,VALID,22.9811,VALID,42,VALID,0.473828,
2009-08-29, 02:28:04,VALID,1000.05,VALID,0,VALID,90.5483,VALID,0,VALID,22.942,VALID,43,VALID,0.326562,
2009-08-29, 02:29:04,VALID,1000.04,VALID,0,VALID,90.6017,VALID,0,VALID,22.8818,VALID,43,VALID,0.427344,
2009-08-29, 02:30:04,VALID,1000.02,VALID,0,VALID,90.7925,VALID,0,VALID,22.8232,VALID,43,VALID,0.496875,
2009-08-29, 02:31:04,VALID,1000.02,VALID,0,VALID,90.968,VALID,0,VALID,22.8037,VALID,43,VALID,0.451172,
2009-08-29, 02:32:04,VALID,1000.02,VALID,0,VALID,91.0443,VALID,0,VALID,22.7842,VALID,43,VALID,0.327344,
2009-08-29, 02:33:04,VALID,1000.06,VALID,0,VALID,91.1282,VALID,0,VALID,22.7647,VALID,43,VALID,0.210547,
2009-08-29, 02:34:04,VALID,1000.02,VALID,0,VALID,91.2655,VALID,0,VALID,22.7452,VALID,43,VALID,0.149219,
2009-08-29, 02:35:04,VALID,1000.05,VALID,0,VALID,91.2503,VALID,0,VALID,22.7469,VALID,43,VALID,0.0222656,
2009-08-29, 02:36:04,VALID,1000.07,VALID,0,VALID,91.3037,VALID,0,VALID,22.7257,VALID,43,VALID,0,
2009-08-29, 02:37:04,VALID,1000.08,VALID,0,VALID,91.3494,VALID,0,VALID,22.7274,VALID,43,VALID,0,
2009-08-29, 02:38:04,VALID,1000.08,VALID,0,VALID,91.3418,VALID,0,VALID,22.6672,VALID,43,VALID,0,
2009-08-29, 02:39:04,VALID,1000.08,VALID,0,VALID,91.7614,VALID,0,VALID,22.6672,VALID,43,VALID,0,
2009-08-29, 02:40:04,VALID,1000.08,VALID,0,VALID,91.8988,VALID,0,VALID,22.7062,VALID,43,VALID,0,
2009-08-29, 02:41:04,VALID,1000.12,VALID,0,VALID,92.2192,VALID,0,VALID,22.7647,VALID,44,VALID,0.201953,
2009-08-29, 02:42:04,VALID,1000.11,VALID,0,VALID,92.1506,VALID,0,VALID,22.8232,VALID,49,VALID,0.179297,
2009-08-29, 02:43:04,VALID,1000.11,VALID,0,VALID,91.998,VALID,0,VALID,22.8232,VALID,49,VALID,0.29375,
2009-08-29, 02:44:04,VALID,1000.07,VALID,0,VALID,91.9369,VALID,0,VALID,22.8427,VALID,49,VALID,0.206641,
2009-08-29, 02:45:04,VALID,1000.11,VALID,0,VALID,91.9293,VALID,0,VALID,22.8427,VALID,49,VALID,0.234375,
2009-08-29, 02:46:04,VALID,1000.11,VALID,0,VALID,91.9293,VALID,0,VALID,22.8427,VALID,49,VALID,0.0191406,
2009-08-29, 02:47:04,VALID,1000.1,VALID,0,VALID,91.8377,VALID,0,VALID,22.8445,VALID,49,VALID,0,
2009-08-29, 02:48:04,VALID,1000.13,VALID,0,VALID,91.8072,VALID,0,VALID,22.8037,VALID,49,VALID,0.175391,
2009-08-29, 02:49:04,VALID,1000.09,VALID,0,VALID,91.8988,VALID,0,VALID,22.7842,VALID,49,VALID,0.0496094,
2009-08-29, 02:50:04,VALID,1000.11,VALID,0,VALID,91.9674,VALID,0,VALID,22.7842,VALID,49,VALID,0.313672,
2009-08-29, 02:51:04,VALID,1000.1,VALID,0,VALID,91.9293,VALID,0,VALID,22.7842,VALID,49,VALID,0.198828,
2009-08-29, 02:52:04,VALID,1000.14,VALID,0,VALID,91.9674,VALID,0,VALID,22.786,VALID,49,VALID,0,
2009-08-29, 02:53:04,VALID,1000.12,VALID,0,VALID,92.1811,VALID,0,VALID,22.8037,VALID,49,VALID,0.182422,
2009-08-29, 02:54:04,VALID,1000.13,VALID,0,VALID,92.1887,VALID,0,VALID,22.8445,VALID,49,VALID,0.360547,
2009-08-29, 02:55:04,VALID,1000.14,VALID,0,VALID,92.1124,VALID,0,VALID,22.8232,VALID,49,VALID,0.302344,
2009-08-29, 02:56:04,VALID,1000.15,VALID,0,VALID,92.1048,VALID,0,VALID,22.8232,VALID,49,VALID,0.4125,
2009-08-29, 02:57:04,VALID,1000.13,VALID,0,VALID,92.0209,VALID,0,VALID,22.8037,VALID,49,VALID,0.545313,
2009-08-29, 02:58:04,VALID,1000.1,VALID,0,VALID,92.3108,VALID,0,VALID,22.8037,VALID,49,VALID,0.566016,
2009-08-29, 02:59:04,VALID,1000.12,VALID,0,VALID,92.12,VALID,0,VALID,22.8037,VALID,49,VALID,0.271484,
2009-08-29, 03:00:04,VALID,1000.09,VALID,0,VALID,91.9522,VALID,0,VALID,22.7647,VALID,49,VALID,0.140625,
2009-08-29, 03:01:04,VALID,1000.12,VALID,0,VALID,91.914,VALID,0,VALID,22.7469,VALID,49,VALID,0.229297,
2009-08-29, 03:02:04,VALID,1000.1,VALID,0,VALID,92.0437,VALID,0,VALID,22.7062,VALID,49,VALID,0.389453,
2009-08-29, 03:03:04,VALID,1000.11,VALID,0,VALID,92.1734,VALID,0,VALID,22.7062,VALID,49,VALID,0.372266,
2009-08-29, 03:04:04,VALID,1000.08,VALID,0,VALID,92.2116,VALID,0,VALID,22.7062,VALID,49,VALID,0.405859,
2009-08-29, 03:05:04,VALID,1000.1,VALID,0,VALID,92.2879,VALID,0,VALID,22.7062,VALID,48,VALID,0.269141,
2009-08-29, 03:06:04,VALID,1000.11,VALID,0,VALID,92.3031,VALID,0,VALID,22.7274,VALID,48,VALID,0.249219,
2009-08-29, 03:07:04,VALID,1000.07,VALID,0,VALID,92.2345,VALID,0,VALID,22.7062,VALID,48,VALID,0.293359,
2009-08-29, 03:08:04,VALID,1000.1,VALID,0,VALID,92.2955,VALID,0,VALID,22.6867,VALID,48,VALID,0.219531,
2009-08-29, 03:09:04,VALID,1000.07,VALID,0,VALID,92.3794,VALID,0,VALID,22.6672,VALID,48,VALID,0.147266,
2009-08-29, 03:10:04,VALID,1000.07,VALID,0,VALID,92.3566,VALID,0,VALID,22.6672,VALID,48,VALID,0.13125,
2009-08-29, 03:11:04,VALID,1000.05,VALID,0,VALID,92.326,VALID,0,VALID,22.6672,VALID,48,VALID,0,
2009-08-29, 03:12:04,VALID,1000.03,VALID,0,VALID,92.3337,VALID,0,VALID,22.6264,VALID,48,VALID,0,
2009-08-29, 03:13:04,VALID,1000.02,VALID,0,VALID,92.3031,VALID,0,VALID,22.6282,VALID,48,VALID,0,
2009-08-29, 03:14:04,VALID,1000.04,VALID,0,VALID,92.3794,VALID,0,VALID,22.6087,VALID,48,VALID,0,
2009-08-29, 03:15:04,VALID,999.984,VALID,0,VALID,92.3566,VALID,0,VALID,22.5892,VALID,48,VALID,0,
2009-08-29, 03:16:04,VALID,1000.02,VALID,0,VALID,92.6083,VALID,0,VALID,22.6104,VALID,48,VALID,0.00820312,
2009-08-29, 03:17:04,VALID,1000,VALID,0,VALID,92.9364,VALID,0,VALID,22.6672,VALID,49,VALID,0.385156,
2009-08-29, 03:18:04,VALID,1000.03,VALID,0,VALID,92.9517,VALID,0,VALID,22.7062,VALID,49,VALID,0.379687,
2009-08-29, 03:19:04,VALID,1000.02,VALID,0,VALID,92.9135,VALID,0,VALID,22.7452,VALID,49,VALID,0.165625,
2009-08-29, 03:20:04,VALID,1000.03,VALID,0,VALID,92.8143,VALID,0,VALID,22.7842,VALID,49,VALID,0.28125,
2009-08-29, 03:21:04,VALID,1000.03,VALID,0,VALID,92.7075,VALID,0,VALID,22.7842,VALID,49,VALID,0.441406,
2009-08-29, 03:22:04,VALID,1000.03,VALID,0,VALID,92.9211,VALID,0,VALID,22.8232,VALID,128,VALID,0.594141,
2009-08-29, 03:23:04,VALID,1000.01,VALID,0,VALID,92.8296,VALID,0,VALID,22.8427,VALID,128,VALID,0.772266,
2009-08-29, 03:24:04,VALID,1000.02,VALID,0,VALID,92.8372,VALID,0,VALID,22.9013,VALID,128,VALID,0.648047,
2009-08-29, 03:25:04,VALID,1000,VALID,0,VALID,92.7151,VALID,0,VALID,22.9403,VALID,128,VALID,0.792969,
2009-08-29, 03:26:04,VALID,1000.03,VALID,0,VALID,92.4939,VALID,0,VALID,22.9598,VALID,129,VALID,0.580469,
2009-08-29, 03:27:04,VALID,1000.03,VALID,0,VALID,92.4634,VALID,0,VALID,22.9793,VALID,129,VALID,0.352734,
2009-08-29, 03:28:04,VALID,1000.05,VALID,0,VALID,92.3794,VALID,0,VALID,22.9988,VALID,129,VALID,0.259375,
2009-08-29, 03:29:04,VALID,1000.08,VALID,0,VALID,92.2955,VALID,0,VALID,23.0201,VALID,129,VALID,0.319531,
2009-08-29, 03:30:04,VALID,1000.09,VALID,0,VALID,92.1811,VALID,0,VALID,22.9988,VALID,129,VALID,0.329297,
2009-08-29, 03:31:04,VALID,1000.08,VALID,0,VALID,92.0743,VALID,0,VALID,22.9988,VALID,124,VALID,0.596484,
2009-08-29, 03:32:04,VALID,1000.09,VALID,0,VALID,92.0819,VALID,0,VALID,23.0396,VALID,111,VALID,0.482422,
2009-08-29, 03:33:04,VALID,1000.09,VALID,0,VALID,91.8301,VALID,0,VALID,23.0183,VALID,111,VALID,0.474609,
2009-08-29, 03:34:04,VALID,1000.1,VALID,0,VALID,91.8606,VALID,0,VALID,22.9988,VALID,111,VALID,0.277734,
2009-08-29, 03:35:04,VALID,1000.14,VALID,0,VALID,91.8759,VALID,0,VALID,22.9793,VALID,111,VALID,0.05625,
2009-08-29, 03:36:04,VALID,1000.12,VALID,0,VALID,91.5554,VALID,0,VALID,22.9598,VALID,111,VALID,0.359375,
2009-08-29, 03:37:04,VALID,1000.15,VALID,0,VALID,91.2121,VALID,0,VALID,22.8818,VALID,56,VALID,0.561328,
2009-08-29, 03:38:04,VALID,1000.13,VALID,0,VALID,91.5707,VALID,0,VALID,22.8427,VALID,55,VALID,0.406641,
2009-08-29, 03:39:04,VALID,1000.17,VALID,0,VALID,91.7996,VALID,0,VALID,22.8445,VALID,55,VALID,0.232422,
2009-08-29, 03:40:04,VALID,1000.19,VALID,0,VALID,91.8072,VALID,0,VALID,22.8232,VALID,55,VALID,0.131641,
2009-08-29, 03:41:04,VALID,1000.2,VALID,0,VALID,91.9217,VALID,0,VALID,22.8445,VALID,55,VALID,0.213672,
2009-08-29, 03:42:04,VALID,1000.21,VALID,0,VALID,91.9064,VALID,0,VALID,22.8232,VALID,55,VALID,0.168359,
2009-08-29, 03:43:04,VALID,1000.22,VALID,0,VALID,91.8988,VALID,0,VALID,22.8232,VALID,55,VALID,0.0828125,
2009-08-29, 03:44:04,VALID,1000.26,VALID,0,VALID,91.7538,VALID,0,VALID,22.8055,VALID,55,VALID,0.227344,
2009-08-29, 03:45:04,VALID,1000.26,VALID,0,VALID,92.0209,VALID,0,VALID,22.7842,VALID,55,VALID,0.223828,
2009-08-29, 03:46:04,VALID,1000.27,VALID,0,VALID,91.8683,VALID,0,VALID,22.7647,VALID,55,VALID,0.208984,